Location: Alvis C Story Elementary School
(33.0968°N, 96.6364°W)
Time: 14:38:23
(UTC+00:00)

Lacrosse 5 rocket - Pass Details

Date: 01 July 2022
Orbit: 456 x 628 km, 57.0° (Epoch: 17 August)

Event Time Altitude Azimuth Distance (km) Brightness Sun altitude
Rises 03:17:58 0° 335° (NNW) 2,602 6.1 -17.5°
Reaches altitude 10° 03:20:27 10° 350° (N) 1,746 4.7 -17.8°
Maximum altitude 03:23:37 23° 44° (NE) 1,171 3.0 -18.3°
Enters shadow 03:24:54 20° 71° (ENE) 1,297 3.0 -18.5°
